GEOFB FIMA-FMNS

Flight info

Callsign GEOFB
Flight time 0h 57m
Altitude 40000
Route MIDRI/N0520F390 DCT MIDRI/N0518F400
Aircraft C750/M-SBDE3FGHRWXY/S

Departure

Time 2026-05-06 14:36
Airport Agalega Island Airstrip (FIMA)

Arrival

Time 2026-05-06 15:33
Airport Sambava Airport (FMNS)
Time Latitude Longitude Altitude Speed Heading
2026-05-06 14:36 -10.42059 56.60558 2544 ft 249 kts 232°
2026-05-06 14:36 -10.43046 56.59019 3248 ft 268 kts 235°
2026-05-06 14:36 -10.44066 56.57428 4340 ft 270 kts 234°
2026-05-06 14:36 -10.45128 56.55853 5315 ft 277 kts 233°
2026-05-06 14:37 -10.46145 56.54353 6180 ft 282 kts 234°
2026-05-06 14:37 -10.47255 56.52691 7125 ft 287 kts 234°
2026-05-06 14:37 -10.48380 56.50999 8190 ft 290 kts 234°
2026-05-06 14:37 -10.49515 56.49301 9280 ft 294 kts 234°
2026-05-06 14:38 -10.50666 56.47583 10281 ft 296 kts 235°
2026-05-06 14:38 -10.51823 56.45854 10770 ft 317 kts 235°
2026-05-06 14:38 -10.53117 56.43919 10939 ft 345 kts 235°
2026-05-06 14:38 -10.54513 56.41829 11251 ft 364 kts 236°
2026-05-06 14:39 -10.55932 56.39703 12148 ft 364 kts 236°
2026-05-06 14:39 -10.57345 56.37588 12906 ft 368 kts 236°
2026-05-06 14:39 -10.58793 56.35421 13620 ft 373 kts 235°
2026-05-06 14:39 -10.60257 56.33229 14311 ft 377 kts 235°
2026-05-06 14:40 -10.61734 56.31014 14997 ft 381 kts 235°
2026-05-06 14:40 -10.63230 56.28774 15666 ft 385 kts 235°
2026-05-06 14:40 -10.64741 56.26510 16350 ft 389 kts 235°
2026-05-06 14:40 -10.66268 56.24221 17028 ft 393 kts 235°
2026-05-06 14:41 -10.67808 56.21910 17728 ft 397 kts 235°
2026-05-06 14:41 -10.69367 56.19573 18424 ft 401 kts 235°
2026-05-06 14:41 -10.70920 56.17247 19121 ft 405 kts 235°
2026-05-06 14:41 -10.72506 56.14867 19836 ft 408 kts 235°
2026-05-06 14:42 -10.74105 56.12466 20538 ft 412 kts 236°
2026-05-06 14:42 -10.75722 56.10039 21207 ft 417 kts 236°
2026-05-06 14:42 -10.77353 56.07593 21904 ft 420 kts 236°
2026-05-06 14:42 -10.79000 56.05121 22564 ft 424 kts 236°
2026-05-06 14:43 -10.80658 56.02628 23206 ft 428 kts 236°
2026-05-06 14:43 -10.82332 56.00112 23838 ft 431 kts 236°
2026-05-06 14:43 -10.84024 55.97573 24491 ft 434 kts 236°
2026-05-06 14:43 -10.85702 55.95053 25086 ft 438 kts 236°
2026-05-06 14:44 -10.87415 55.92475 25684 ft 442 kts 237°
2026-05-06 14:44 -10.89143 55.89876 26277 ft 445 kts 237°
2026-05-06 14:44 -10.90886 55.87257 26857 ft 449 kts 237°
2026-05-06 14:45 -10.94409 55.81953 27986 ft 456 kts 237°
2026-05-06 14:45 -10.96192 55.79271 28516 ft 460 kts 237°
2026-05-06 14:45 -10.97987 55.76568 29067 ft 463 kts 237°
2026-05-06 14:45 -10.99794 55.73847 29543 ft 466 kts 237°
2026-05-06 14:46 -11.01618 55.71102 30031 ft 469 kts 237°
2026-05-06 14:46 -11.03426 55.68378 30489 ft 472 kts 237°
2026-05-06 14:46 -11.05269 55.65598 30980 ft 474 kts 237°
2026-05-06 14:46 -11.07108 55.62828 31640 ft 471 kts 237°
2026-05-06 14:47 -11.08940 55.60065 32267 ft 470 kts 237°
2026-05-06 14:47 -11.10764 55.57313 32865 ft 468 kts 237°
2026-05-06 14:47 -11.12580 55.54574 33469 ft 466 kts 237°
2026-05-06 14:47 -11.14389 55.51847 34059 ft 464 kts 237°
2026-05-06 14:48 -11.16166 55.49164 34655 ft 462 kts 237°
2026-05-06 14:48 -11.17961 55.46452 35224 ft 461 kts 237°
2026-05-06 14:48 -11.19753 55.43747 35782 ft 460 kts 237°
2026-05-06 14:48 -11.21536 55.41054 36332 ft 458 kts 237°
2026-05-06 14:49 -11.23319 55.38358 36812 ft 459 kts 237°
2026-05-06 14:49 -11.25103 55.35661 37304 ft 459 kts 237°
2026-05-06 14:49 -11.26886 55.32968 37794 ft 459 kts 237°
2026-05-06 14:49 -11.28670 55.30270 38279 ft 459 kts 237°
2026-05-06 14:50 -11.30426 55.27614 38743 ft 459 kts 237°
2026-05-06 14:50 -11.32210 55.24916 39224 ft 459 kts 238°
2026-05-06 14:50 -11.33989 55.22223 39691 ft 456 kts 238°
2026-05-06 14:50 -11.35766 55.19532 39910 ft 463 kts 238°
2026-05-06 14:51 -11.37585 55.16777 39908 ft 474 kts 238°
2026-05-06 14:51 -11.41339 55.11090 39929 ft 493 kts 238°
2026-05-06 14:52 -11.45225 55.05204 39926 ft 507 kts 237°
2026-05-06 14:52 -11.49155 54.99242 39923 ft 511 kts 237°
2026-05-06 14:53 -11.53117 54.93231 39918 ft 511 kts 237°
2026-05-06 14:53 -11.57071 54.87230 39919 ft 509 kts 237°
2026-05-06 14:54 -11.61011 54.81246 39919 ft 507 kts 238°
2026-05-06 14:54 -11.64907 54.75319 39916 ft 506 kts 238°
2026-05-06 14:55 -11.68824 54.69367 39918 ft 505 kts 237°
2026-05-06 14:55 -11.72731 54.63417 39919 ft 505 kts 237°
2026-05-06 14:56 -11.76635 54.57475 39920 ft 504 kts 238°
2026-05-06 14:56 -11.80531 54.51538 39915 ft 503 kts 238°
2026-05-06 14:57 -11.84395 54.45645 39917 ft 503 kts 238°
2026-05-06 14:57 -11.88280 54.39720 39921 ft 502 kts 238°
2026-05-06 14:58 -11.92160 54.33798 39920 ft 501 kts 238°
2026-05-06 14:58 -11.96037 54.27876 39918 ft 501 kts 238°
2026-05-06 14:59 -11.99888 54.21991 39917 ft 501 kts 238°
2026-05-06 14:59 -12.03747 54.16085 39919 ft 500 kts 238°
2026-05-06 15:00 -12.07615 54.10171 39921 ft 500 kts 238°
2026-05-06 15:00 -12.11476 54.04257 39920 ft 500 kts 238°
2026-05-06 15:01 -12.15312 53.98381 39921 ft 500 kts 238°
2026-05-06 15:01 -12.19171 53.92466 39921 ft 500 kts 238°
2026-05-06 15:02 -12.23032 53.86543 39922 ft 500 kts 238°
2026-05-06 15:02 -12.26888 53.80625 39920 ft 500 kts 238°
2026-05-06 15:03 -12.30745 53.74703 39918 ft 500 kts 238°
2026-05-06 15:03 -12.34575 53.68817 39917 ft 500 kts 238°
2026-05-06 15:04 -12.38424 53.62897 39920 ft 500 kts 238°
2026-05-06 15:04 -12.42271 53.56980 39919 ft 499 kts 238°
2026-05-06 15:05 -12.46118 53.51054 39921 ft 500 kts 238°
2026-05-06 15:05 -12.49937 53.45172 39922 ft 500 kts 238°
2026-05-06 15:06 -12.53782 53.39244 39923 ft 500 kts 238°
2026-05-06 15:06 -12.57628 53.33313 39921 ft 500 kts 238°
2026-05-06 15:07 -12.61467 53.27386 39921 ft 499 kts 238°
2026-05-06 15:07 -12.65308 53.21452 39925 ft 500 kts 238°
2026-05-06 15:08 -12.71832 53.11367 39933 ft 500 kts 238°
2026-05-06 15:08 -12.79518 52.99472 39931 ft 500 kts 238°
2026-05-06 15:09 -12.87209 52.87554 39925 ft 503 kts 238°
2026-05-06 15:09 -12.94915 52.75594 39926 ft 503 kts 238°
2026-05-06 15:10 -13.02564 52.63710 39929 ft 502 kts 238°
2026-05-06 15:10 -13.10248 52.51753 39926 ft 502 kts 238°
2026-05-06 15:11 -13.17928 52.39786 39929 ft 502 kts 238°
2026-05-06 15:11 -13.25595 52.27826 39928 ft 502 kts 238°
2026-05-06 15:12 -13.33265 52.15843 39929 ft 502 kts 238°
2026-05-06 15:12 -13.40869 52.03947 39939 ft 501 kts 238°
2026-05-06 15:13 -13.47876 51.91586 39941 ft 501 kts 243°
2026-05-06 15:13 -13.54651 51.79033 39945 ft 503 kts 243°
2026-05-06 15:14 -13.61415 51.66446 39940 ft 503 kts 243°
2026-05-06 15:14 -13.64423 51.60830 39934 ft 486 kts 243°
2026-05-06 15:14 -13.65988 51.57927 39894 ft 457 kts 243°
2026-05-06 15:14 -13.67487 51.55129 39417 ft 440 kts 243°
2026-05-06 15:15 -13.68885 51.52510 37568 ft 403 kts 243°
2026-05-06 15:15 -13.70297 51.49853 35095 ft 441 kts 242°
2026-05-06 15:15 -13.71782 51.47074 33698 ft 443 kts 241°
2026-05-06 15:15 -13.73269 51.44307 32226 ft 441 kts 241°
2026-05-06 15:16 -13.74757 51.41530 30392 ft 446 kts 241°
2026-05-06 15:16 -13.76262 51.38706 28725 ft 449 kts 241°
2026-05-06 15:16 -13.77745 51.35924 27466 ft 439 kts 241°
2026-05-06 15:16 -13.79180 51.33241 26186 ft 430 kts 240°
2026-05-06 15:17 -13.80607 51.30571 24907 ft 421 kts 240°
2026-05-06 15:17 -13.81999 51.27961 23601 ft 413 kts 240°
2026-05-06 15:17 -13.83381 51.25369 23206 ft 410 kts 240°
2026-05-06 15:17 -13.84765 51.22777 22711 ft 412 kts 240°
2026-05-06 15:18 -13.86138 51.20201 22166 ft 409 kts 240°
2026-05-06 15:18 -13.87497 51.17648 21632 ft 406 kts 240°
2026-05-06 15:18 -13.88852 51.15107 21094 ft 404 kts 240°
2026-05-06 15:18 -13.90183 51.12610 20567 ft 403 kts 240°
2026-05-06 15:19 -13.91525 51.10089 20040 ft 401 kts 240°
2026-05-06 15:19 -13.92863 51.07574 19513 ft 400 kts 240°
2026-05-06 15:19 -13.94198 51.05067 18988 ft 398 kts 240°
2026-05-06 15:19 -13.95528 51.02569 18474 ft 397 kts 240°
2026-05-06 15:20 -13.96851 51.00080 17944 ft 396 kts 240°
2026-05-06 15:20 -13.97726 50.98434 17600 ft 395 kts 240°
2026-05-06 15:20 -13.99040 50.95963 17083 ft 392 kts 240°
2026-05-06 15:20 -14.00343 50.93512 16571 ft 389 kts 240°
2026-05-06 15:21 -14.01637 50.91076 16063 ft 386 kts 240°
2026-05-06 15:21 -14.03336 50.87876 15388 ft 383 kts 240°
2026-05-06 15:21 -14.04611 50.85479 14893 ft 380 kts 240°
2026-05-06 15:21 -14.05874 50.83097 14394 ft 378 kts 240°
2026-05-06 15:22 -14.06705 50.81529 14066 ft 376 kts 240°
2026-05-06 15:22 -14.07954 50.79173 13575 ft 373 kts 240°
2026-05-06 15:22 -14.09197 50.76833 13081 ft 371 kts 240°
2026-05-06 15:22 -14.10430 50.74509 12599 ft 369 kts 240°
2026-05-06 15:23 -14.11654 50.72196 12115 ft 366 kts 240°
2026-05-06 15:23 -14.13262 50.69161 11482 ft 363 kts 240°
2026-05-06 15:23 -14.14077 50.67625 11159 ft 357 kts 240°
2026-05-06 15:23 -14.15223 50.65459 10732 ft 333 kts 240°
2026-05-06 15:24 -14.16280 50.63458 10343 ft 313 kts 240°
2026-05-06 15:24 -14.17316 50.61546 9957 ft 300 kts 237°
2026-05-06 15:24 -14.18532 50.59819 9590 ft 296 kts 230°
2026-05-06 15:24 -14.19827 50.58177 9239 ft 296 kts 229°
2026-05-06 15:25 -14.21132 50.56543 8889 ft 295 kts 229°
2026-05-06 15:25 -14.22430 50.54908 8533 ft 294 kts 229°
2026-05-06 15:25 -14.23720 50.53281 8183 ft 292 kts 229°
2026-05-06 15:25 -14.25003 50.51663 7828 ft 291 kts 229°
2026-05-06 15:26 -14.26280 50.50054 7484 ft 289 kts 229°
2026-05-06 15:26 -14.27550 50.48458 7140 ft 287 kts 228°
2026-05-06 15:26 -14.28792 50.46890 6801 ft 286 kts 229°
2026-05-06 15:26 -14.30048 50.45299 6457 ft 284 kts 229°
2026-05-06 15:27 -14.31290 50.43723 6085 ft 284 kts 229°
2026-05-06 15:27 -14.32531 50.42148 5706 ft 282 kts 229°
2026-05-06 15:27 -14.33766 50.40586 5320 ft 280 kts 229°
2026-05-06 15:27 -14.34997 50.39031 4952 ft 278 kts 229°
2026-05-06 15:28 -14.36215 50.37489 4594 ft 277 kts 229°
2026-05-06 15:28 -14.37423 50.35958 4255 ft 268 kts 229°
2026-05-06 15:28 -14.38444 50.34512 3981 ft 240 kts 233°
2026-05-06 15:28 -14.39357 50.33120 3682 ft 231 kts 233°
2026-05-06 15:29 -14.40237 50.31748 3380 ft 229 kts 237°
2026-05-06 15:29 -14.40616 50.30143 2973 ft 233 kts 265°
2026-05-06 15:29 -14.40293 50.28540 2603 ft 221 kts 288°
2026-05-06 15:29 -14.39791 50.27086 2303 ft 201 kts 290°
2026-05-06 15:30 -14.39344 50.25806 2014 ft 183 kts 289°
2026-05-06 15:30 -14.38914 50.24569 2010 ft 185 kts 289°
2026-05-06 15:30 -14.38488 50.23333 2014 ft 186 kts 289°
2026-05-06 15:30 -14.37824 50.22205 1985 ft 185 kts 318°
2026-05-06 15:31 -14.36715 50.21544 2004 ft 185 kts 339°
2026-05-06 15:31 -14.35543 50.21032 2025 ft 173 kts 338°
2026-05-06 15:31 -14.34537 50.20570 1894 ft 148 kts 338°
2026-05-06 15:32 -14.32740 50.19761 1264 ft 141 kts 339°
2026-05-06 15:32 -14.32045 50.19451 963 ft 140 kts 338°
2026-05-06 15:32 -14.31159 50.19055 620 ft 138 kts 338°
2026-05-06 15:32 -14.30300 50.18670 306 ft 132 kts 338°
2026-05-06 15:33 -14.29488 50.18310 170 ft 125 kts 339°
2026-05-06 15:33 -14.28698 50.17935 41 ft 122 kts 333°
2026-05-06 15:33 -14.28058 50.17578 19 ft 77 kts 328°
2026-05-06 15:33 -14.27899 50.17485 20 ft 0 kts 330°
2026-05-06 15:34 -14.27936 50.17508 20 ft 14 kts 326°
2026-05-06 15:34 -14.28073 50.17584 19 ft 32 kts 331°
2026-05-06 15:34 -14.28218 50.17667 19 ft 0 kts 331°